OBJECT XH, 65729

Orbit data source: Space-Track

You're viewing an Uncataloged Satellite

Recently launched and/or uncataloged satellites may have evolving metadata. Metadata may include but not limited to: Owner, Maufacturer, Bus, Motor, and Mission.

OBJECT XH, 65729 is a satellite owned by Kyutech (JP) in LEO that was delivered to and deployed from the ISS. Unknown objects in Earth's orbit typically refer to objects detected orbiting the Earth but have not yet been identified or cataloged. These objects could be anything from previously untracked satellites, spent rocket stages, debris from satellite collisions, or even natural meteoroids temporarily captured by Earth's gravity.

Loading next visibility...
Identifier
65729, 1998-067XH
Orbit
LEO
Country
Flag of JPJP / JPN
Related business
Manufacturer
Kyutech
Mission
Operational spacecraft
Bus & Motor
CUBESAT 2U, Unknown motor
Mass
2 kg wet, 2 kg dry
Launch date (UTC)
1998-11-20 (27 years ago)
Launch vehicle
FALCON 9
Launch site
Tyuratam Missile And Space Complex (TTMTR)
Object type
Unknown
Shape & HBR
Unknown shape, 1.1 m
Radar Cross Section
RCS unknown

Expand to show TLE details & history
Last TLE update: 12 hours ago

TLE from 12 hours ago
0 OBJECT XH
1 65729U 98067XH  25287.78875365  .00085032  00000-0  11965-2 0  9994
2 65729  51.6317  73.6352 0001012  98.5214 261.5892 15.55927107  3944
Epoch: 2025-10-14T18:55Z
TLE epoch observation values (Epoch: 2025-10-14T18:55:48.315Z)
Latitude
-0.00002°
Longitude
126.11172°
Altitude
400.302 km
Speed
7.672 km/s
True Right ascension
04h 54m 32s
True Declination
0° 00' 00"
Sunlit
Object was in full shadow at epoch
Visualization orbit readout
Latitude
Unknown
Longitude
Unknown
Altitude
Unknown
Speed
Unknown
Apparent Right ascension
Unknown
Apparent Declination
Unknown
Sunlit
N/A
Visualization observer readout
Local Sidereal Time
01:37:01
Azimuth
Unknown
Elevation
Unknown
Doppler factor
Unknown
Orbital elements
Apogee altitude
400.656 km
Perigee altitude
399.284 km
Semi-major axis
6,778.107 km
Eccentricity
0.0001
Inclination
51.6317°
RAAN
73.6352°
Arg. of periapsis
98.5214°
True anomaly
261.57773°
Mean anomaly
261.5892°
Eccentric anomaly
261.58346°
Mean motion
3.88938 °/min
Orbital period
92.56 mins
BSTAR
0.0011965
Loading maneuver chart data...
Computing Atmospheric mass density...

Documentation

Showing up to 5 results
|